Location: Bédeille
(43.0872°N, 1.1041°E)
Time: 12:52:14
(UTC+00:00)

Cosmos 2278 Rocket - Pass Details

Date: 03 February 2023
Orbit: 841 x 845 km, 71.0° (Epoch: 19 March)

Event Time Altitude Azimuth Distance (km) Brightness Sun altitude
Rises 19:56:53 0° 339° (NNW) 3,414 5.7 -30.6°
Reaches altitude 10° 19:59:25 10° 344° (NNW) 2,475 4.8 -31.1°
Enters shadow 20:01:34 23° 354° (N) 1,736 3.9 -31.5°
